Regional Weather Roundup
Issued by NWS

Home | Current Version | Previous Version | Text Only | Print | Product List | Glossary Off
Versions: 1 2 3 4 5 6 7 8 9 10 11 12 13 14 15 16 17 18 19 20 21 22 23 24 25 26 27 28 29 30 31 32 33 34 35 36 37 38 39 40 41 42 43 44 45 46 47 48 49 50

000
ASUS45 KCYS 131010
RWRWY

WYOMING REGIONAL WEATHER ROUNDUP
NATIONAL WEATHER SERVICE CHEYENNE WY
300 AM MST SAT FEB 13 2016

NOTE:  "FAIR" INDICATES FEW OR NO CLOUDS BELOW 12,000 FEET
WITH NO SIGNIFICANT WEATHER AND/OR OBSTRUCTIONS TO VISIBILITY.

WYZ001-131100-
YELLOWSTONE NATIONAL PARK

CITY           SKY/WX    TMP DP  RH WIND       PRES   REMARKS
LK YELLOWSTONE   N/A     29  20  69 CALM      30.18F
W YELLOWSTONE  NOT AVBL

$$
WYZ002>013-054>058-071-098>099-131100-
NORTHERN WYOMING

CITY           SKY/WX    TMP DP  RH WIND       PRES   REMARKS
JACKSON        CLOUDY    25  21  86 N10       30.17F WCI  15
CODY           CLOUDY    52  25  35 SW5       30.01F
GREYBULL       FAIR      32  28  85 E3        30.02F
WORLAND        FAIR      30  27  88 S6        30.02F WCI  24
SHERIDAN       FAIR      29  25  85 NW5       29.96F WCI  24
BUFFALO        FAIR      41  24  51 SW3       29.98F
GILLETTE       FAIR      29  27  92 S14       30.00F WCI  18
HULETT         FAIR      32  28  86 W7        30.03F WCI  26
NEWCASTLE      CLOUDY    30  28  93 SE6       30.10F WCI  24

$$
WYZ014>020-022>026-101>103-131100-
CENTRAL WYOMING

CITY           SKY/WX    TMP DP  RH WIND       PRES   REMARKS
BIG PINEY      FAIR      20  16  84 CALM      30.20F
PINEDALE         N/A     21  18  86 NW6       30.21F WCI  14
DUBOIS         FAIR      32  18  55 NW17      30.12F WCI  21
LANDER         FAIR      32  22  66 CALM      30.06F
RIVERTON       FAIR      32  26  78 SW6       30.08F WCI  26
CASPER         FAIR      39  22  50 SW12      30.07F WCI  32
DOUGLAS        FOG       29  28  96 SE6       30.09F VSB 1/2 WCI  23

$$
WYZ021-027>030-104>119-131100-
SOUTHERN WYOMING

CITY           SKY/WX    TMP DP  RH WIND       PRES   REMARKS
EVANSTON       FAIR      33  13  43 SW9       30.23F WCI  25
FORT BRIDGER   SUNNY     36  16  44 W10       30.25F WCI  28
ROCK SPRINGS   FAIR      33  20  58 SW10      30.20F WCI  25
DIXON          FAIR      15  11  82 E5        30.27F WCI   8
RAWLINS        FAIR      38  20  48 VRB5      30.18F WCI  34
SARATOGA       FAIR      32  23  69 SE7       30.21F WCI  26
LARAMIE        FAIR      37  21  52 SW9       30.16F WCI  30
CHEYENNE       FAIR      32  26  78 VRB6      30.10F WCI  26
TORRINGTON     FAIR      29  27  92 E9        30.11F WCI  20
PINE BLUFFS    CLOUDY    28  28 100 S9        30.15F FOG     WCI  20

$$



USA.gov is the U.S. government's official web portal to all federal, state and local government web resources and services.